Abilene Dyess, TX

7:22 AM CDT on July 22, 2017 (GMT -0500)
Dyess Air Force Base

Weather History for KDYS - July, 2013

Change the Weather History Date:

Thursday, July 18, 2013

  Actual Average Record
Temperature  
Mean Temperature 77 °F -  
Max Temperature 86 °F 95 °F 105 °F (2006)
Min Temperature 69 °F 74 °F 66 °F (2014)
Cooling Degree Days 12    
Growing Degree Days 27 (Base 50)    
Moisture  
Dew Point 69 °F    
Average Humidity 83    
Maximum Humidity 100    
Minimum Humidity 55    
Precipitation  
Precipitation 0.01 in - - ()
Sea Level Pressure  
Sea Level Pressure 30.13 in    
Wind  
Wind Speed 6 mph (SSE)    
Max Wind Speed 14 mph    
Max Gust Speed 18 mph    
Visibility 10 miles    
Events Rain    
Averages and records for this station are not official NWS values.
T = Trace of Precipitation, MM = Missing Value Source: NWS Daily Summary

Daily Weather History Graph

Daily Weather History Graph

Search for Another Location

Airport or City:

Trip Planner

Search our weather history database for the weather conditions in past years. The results will help you decide how hot, cold, wet, or windy it might be!

Date:

Astronomy

Jul. 18, 2013 Rise Set
Actual Time 6:45 AM CDT 8:46 PM CDT
Civil Twilight 6:17 AM CDT 9:13 PM CDT
Nautical Twilight 5:43 AM CDT 9:47 PM CDT
Astronomical Twilight 5:07 AM CDT 10:22 PM CDT
Moon 4:46 PM CDT (7/18) 2:33 AM CDT (7/18)
Length of Visible Light 14h 56m
Length of Day
14h 00m
Waxing Gibbous, 77% of the Moon is Illuminated
Jul 18
Waxing Gibbous
Jul 22
Full
Jul 29
Last Quarter
Aug 6
New
Aug 14
First Quarter

Hourly Weather History & Observations

Time (CDT) Temp. Heat Index Dew Point Humidity Pressure Visibility Wind Dir Wind Speed Gust Speed Precip Events Conditions
12:03 AM 69.8 °F - 69.8 °F 100% 30.22 in 10.0 mi East 5.8 mph - N/A   Overcast
12:13 AM 69.8 °F - 69.8 °F 100% 30.22 in 10.0 mi East 4.6 mph - N/A   Mostly Cloudy
12:38 AM 69.8 °F - 69.8 °F 100% 30.22 in 10.0 mi ENE 3.5 mph - N/A   Mostly Cloudy
12:58 AM 69.4 °F - 69.1 °F 99% 30.12 in 10.0 mi Calm Calm - N/A   Scattered Clouds
1:58 AM 69.6 °F - 69.1 °F 98% 30.10 in 10.0 mi East 2.3 mph - N/A   Clear
2:58 AM 69.6 °F - 68.4 °F 96% 30.09 in 10.0 mi SE 4.6 mph - N/A   Clear
3:58 AM 69.6 °F - 68.0 °F 95% 30.11 in 10.0 mi ESE 5.8 mph - N/A   Overcast
4:28 AM 69.8 °F - 68.0 °F 94% 30.21 in 10.0 mi SE 9.2 mph - N/A   Overcast
4:33 AM 69.8 °F - 68.0 °F 94% 30.20 in 10.0 mi SSE 9.2 mph - N/A   Overcast
4:58 AM 69.4 °F - 68.4 °F 96% 30.11 in 10.0 mi SSE 9.2 mph - N/A   Overcast
5:28 AM 69.8 °F - 68.0 °F 94% 30.20 in 10.0 mi SSE 6.9 mph - N/A   Overcast
5:58 AM 69.4 °F - 68.5 °F 97% 30.11 in 10.0 mi South 3.5 mph - N/A   Overcast
6:58 AM 69.4 °F - 68.9 °F 98% 30.11 in 10.0 mi SSE 2.3 mph - N/A   Overcast
7:55 AM 69.8 °F - 68.9 °F 97% 30.16 in 10.0 mi SSW 3.5 mph - N/A   Overcast
7:58 AM 69.8 °F - 68.9 °F 97% 30.10 in 10.0 mi SSW 2.3 mph - N/A   Overcast
8:55 AM 71.6 °F - 69.8 °F 94% 30.23 in 10.0 mi ESE 5.8 mph - N/A   Overcast
8:58 AM 71.6 °F - 69.8 °F 94% 30.18 in 10.0 mi ESE 6.9 mph - N/A   Overcast
9:06 AM 73.4 °F - 69.8 °F 88% 30.18 in 10.0 mi SE 4.6 mph - N/A   Overcast
9:35 AM 75.2 °F - 68.0 °F 78% 30.18 in 10.0 mi South 5.8 mph - N/A   Overcast
9:55 AM 77.0 °F - 69.8 °F 78% 30.23 in 10.0 mi SE 6.9 mph - N/A   Overcast
10:55 AM 75.2 °F - 68.0 °F 78% 30.23 in 10.0 mi SSE 8.1 mph - N/A   Overcast
11:55 AM 80.6 °F 83.9 °F 69.8 °F 70% 30.22 in 10.0 mi South 6.9 mph - N/A   Partly Cloudy
12:58 PM 81.7 °F 84.2 °F 67.1 °F 61% 30.09 in 10.0 mi East 8.1 mph - N/A   Mostly Cloudy
1:18 PM 80.6 °F 83.2 °F 68.0 °F 65% 30.14 in 6.0 mi SSE 13.8 mph 18.4 mph N/A Rain Light Rain Showers
1:26 PM 80.6 °F 83.2 °F 68.0 °F 65% 30.20 in 10.0 mi SSE 13.8 mph 18.4 mph N/A Rain Light Rain
1:39 PM 78.8 °F - 69.8 °F 74% 30.20 in 10.0 mi South 9.2 mph - N/A   Mostly Cloudy
1:47 PM 78.8 °F - 69.8 °F 74% 30.19 in 10.0 mi SSW 10.4 mph - N/A Rain Light Rain
1:58 PM 77.5 °F - 70.2 °F 78% 30.08 in 10.0 mi SW 8.1 mph - 0.00 in Rain Light Rain
2:02 PM 78.8 °F - 69.8 °F 74% 30.19 in 10.0 mi Variable 5.8 mph - N/A   Overcast
2:58 PM 82.2 °F 85.1 °F 68.0 °F 62% 30.04 in 10.0 mi SE 12.7 mph - 0.01 in   Overcast
3:58 PM 84.9 °F 87.6 °F 67.3 °F 55% 30.01 in 10.0 mi SSE 12.7 mph - N/A   Mostly Cloudy
4:58 PM 85.3 °F 88.2 °F 67.3 °F 55% 29.99 in 10.0 mi SE 12.7 mph - N/A   Mostly Cloudy
5:58 PM 83.3 °F 87.4 °F 70.2 °F 64% 29.97 in 10.0 mi South 10.4 mph - N/A   Scattered Clouds
6:58 PM 84.7 °F 87.4 °F 66.7 °F 55% 29.96 in 10.0 mi South 8.1 mph - N/A   Clear
7:58 PM 82.8 °F 86.0 °F 68.4 °F 62% 29.95 in 10.0 mi South 8.1 mph - N/A   Clear
8:58 PM 78.6 °F - 71.1 °F 78% 30.08 in 10.0 mi Calm Calm - N/A   Clear
9:58 PM 76.3 °F - 71.1 °F 84% 30.09 in 10.0 mi SSW 1.2 mph - N/A   Clear
10:58 PM 74.5 °F - 70.7 °F 88% 30.10 in 10.0 mi Calm Calm - N/A   Clear
11:58 PM 73.6 °F - 70.3 °F 90% 30.11 in 10.0 mi Calm Calm - N/A   Clear